Regional Weather Roundup
Issued by NWS Charleston, SC

Current Version | Previous Version | Graphics & Text | Print | Product List | Glossary On
Versions: 1 2 3 4 5 6 7 8 9 10 11 12 13 14 15 16 17 18 19 20 21 22 23 24 25 26 27 28 29 30 31 32 33 34 35 36 37 38 39 40 41 42 43 44 45 46 47 48 49 50
000
ASUS42 KCHS 310525
RWRCHS

REGIONAL WEATHER ROUNDUP
NATIONAL WEATHER SERVICE CHARLESTON SC
100 AM EDT THU JUL 31 2014

NOTE: "FAIR" INDICATES FEW OR NO CLOUDS BELOW 12,000 FEET WITH NO
SIGNIFICANT WEATHER AND/OR OBSTRUCTIONS TO VISIBILITY.

NOT ALL STATIONS ARE QUALITY CONTROLLED BY THE NATIONAL
WEATHER SERVICE. USE DATA WITH CAUTION...ESPECIALLY
DEWPOINT OBSERVATIONS.

SCZ027-030-031-034>040-042>050-310600-
...SOUTH CAROLINA...

CITY           SKY/WX    TMP DP  RH WIND       PRES   REMARKS
N CHARLESTON   PTCLDY    77  70  79 NE3       30.02F
WATERFRONT PRK   N/A     82 N/A N/A E16         N/A
FORT JOHNSON   NOT AVBL
MOUNT PLEASANT FAIR      79  72  78 CALM      30.02F
JOHNS ISLAND   MOCLDY    81  70  69 E8        30.02S
PINOPOLIS        N/A     79  70  73 E3        29.97R
MONCKS CORNER    N/A     75  72  88 NE3       30.03S
SUMMERVILLE    FAIR      72  72 100 CALM      30.04S
BEAUFORT MCAS  CLOUDY    82  72  71 SE8       30.00F
BEAUFORT ARPT  CLOUDY    81  73  78 E7        29.99F
HILTON HEAD IS MOCLDY    82  73  74 E7        30.00S
GEORGETOWN     NOT AVBL
WALTERBORO     PTCLDY    73 N/A N/A NE5       30.03S
ORANGEBURG     CLOUDY    73  67  81 NE3       30.04S
BARNWELL       FAIR      73  70  88 E3        30.04S
AIKEN          FAIR      72  70  94 NE6       30.09S
MANNING        CLOUDY    70 N/A N/A CALM      30.05S
KINGSTREE      NOT AVBL
COLUMBIA       CLOUDY    77  66  68 CALM      30.05S
SUMTER         CLOUDY    71  69  95 NE5       30.04S
FLORENCE       CLOUDY    74  69  85 NE3       30.07R
MYRTLE BEACH   PTCLDY    81  66  61 E8        30.04S
N MYRTLE BEACH PTCLDY    80  66  62 SE7       30.04F

$$

GAZ063-065-086>088-099>101-113>116-118-119-134-136>141-150-310600-
...GEORGIA...

CITY           SKY/WX    TMP DP  RH WIND       PRES   REMARKS
SAVANNAH ARPT  PTCLDY    77  69  76 NE9       30.00F
HUNTER AAF     CLEAR     76  71  83 N2        29.98F
FORT STEWART   MOCLDY    76  73  91 NE5       29.99S
STATESBORO     NOT AVBL
SYLVANIA       CLOUDY    73  73  98 CALM      30.03S
CLAXTON        FAIR      73  73 100 CALM      30.01S
THOMSON        MOCLDY    76  72  86 NE3       30.08F
AUGUSTA-BUSH   MOCLDY    73  67  81 CALM      30.03S
AUGUSTA-DANIEL MOCLDY    77  67  71 E6        30.05R
SWAINSBORO     FAIR      73  73 100 CALM      30.03S
VIDALIA          N/A     73  72  94 NE3       30.01F
ALMA           MOCLDY    76  71  85 CALM      29.99S
WAYCROSS       CLEAR     78  75  91 E5        29.98S
JESUP          FAIR      77  73  88 CALM      29.99S
BRUNSWICK      PTCLDY    77  72  83 CALM      29.98F
SAINT SIMONS   PTCLDY    81  73  76 E7        29.97F

$$

SCZ027-028-034-036>038-045-046-048>050-GAZ119-141-310600-
...LAKE AND SUPPLEMENTAL COASTAL OBSERVATIONS...

STATION/POSITION TIME  TEMP    WIND        PRES    WAVE   SWELL
                       AIR SEA DIR/SP/G            HT/PER HT/PER/DIR
                 (UTC) (F)     (DEG/KT/KT) (MB)    (FT/S) (FT/S/D)
UPR LAKE MARION  NOT AVBL
WINYAH BAY       0500   81     100/  9     1017.0S
LAKE MURRAY      0400   75      CALM  /  4 1017.3S
ACE BASIN NERRS  0500   80      90/  2     1016.0S
FORT PULASKI     0500   83     120/  6/  9 1015.7F
SAPELO ISLAND    0500   80     110/  4     1015.0F

$$

ANZ835-935-AMZ111-154-330-350-352-354-374-450-454-472-310600-
...C-MAN AND BUOY OBSERVATIONS...

STATION/POSITION TIME  TEMP    WIND        PRES    WAVE   SWELL
                       AIR SEA DIR/SP/G            HT/PER HT/PER/DIR
                 (UTC) (F)     (DEG/KT/KT) (MB)    (FT/S) (FT/S/D)
FOLLY BEACH CMAN 0500   82     100/ 15/ 16 1016.8F
BUOY 41004       0500   82 83   90/ 12/ 16 1015.9F   4/ 5   2/ 7
BUOY 41008       0500   83 85  100/ 14/ 16 1014.8F   3/ 5   2/110/ 8
5E ST. MARYS GA  0500      86                N/A     2/ 5
FRYING PAN BUOY  NOT AVBL
BUOY 41025       0500          VRB  8/ 14  1018.5R   3/ 6   3/ 80/ 6
CAPE LOOKOUT NC  0500   79      80/ 11/ 12 1018.2R
BUOY 41002       0448   79 80   30/  4/  4 1017.0S   4/ 6   3/160/ 6
BUOY 41010       0500   84 85  190/  8/  8 1015.8R   2/ 8   2/100/ 8
BUOY 41012       NOT AVBL
ST AUGUSTINE FL  0500   79     220/  5/  7 1015.8F
CAPERS NEARSHORE 0400   82     110/ 14/ 16   N/A
FRIPP NEARSHORE  NOT AVBL


$$



USA.gov is the U.S. government's official web portal to all federal, state and local government web resources and services.